EUTELSAT 36B

Last updated on Tue Sep 22 2026 00:03:11 GMT+0000 (Coordinated Universal Time)

1 36101U 09065A 26264.57036439 .00000108 00000+0 00000+0 0 9995 2 36101 0.7271 81.1036 0005798 97.4196 77.7672 1.00273921 61675
UTC large
Height (km)
Speed (km/s)
/
Latitude / Longitude
Inclination (degrees)
Orbital Period (minutes)
Azimuth
Elevation
Range (km)
Doppler Factor

Next 0 passes for location: London (51.5072 / 0.1276)

No passes found over London.
EUTELSAT 36B